Flag for Canada Weather past 2 weeks in Timmins, Ontario, Canada

41 °F

Light rain. Overcast.

Feels Like: 37 °F
Forecast: 27 / 48 °F
Wind: 6 mph from Southeast

Location: Timmins

Current Time: Oct 9, 2015 at 12:20:43 AM

Latest Report: Oct 9, 2015 at 12:00 AM

Visibility: 15 mi

Pressure: 29.96 "Hg

Humidity: 93%

Dew point: 39 °F

Location of TimminsLocation

Historic Weather in Timmins — Graph


Timmins temperature yesterday

Maximum temperature yesterday: 46 °F (at 3:00 PM)
Minimum temperature yesterday: 27 °F (at 12:00 AM)
Average temperature yesterday: 37 °F

Past Weeks' High & Low Weather Summary

High75 °F (Sep 27, 3:00 PM)100% (Sep 23, 10:00 PM)30.77 "Hg (Sep 23, 10:00 PM)
Low23 °F (Oct 1, 7:00 AM)37% (Oct 1, 4:00 PM)29.77 "Hg (Sep 28, 3:00 PM)
Average46 °F78%30.31 "Hg
* Reported Sep 23 10:00 PM — Oct 8 10:00 PM, Timmins, Weather by CustomWeather, © 2015

Note: Actual official high and low records may vary slightly from our data, if they occured in-between our weather recording intervals... More about our weather records


Timmins weather history for previous 24 hours

Time TempWeatherWind HumidityBarometerVisibility
10:00 PM
Thu, Oct 8
41 °FLight rain. Overcast.7 mph93%30.00 "Hg15 mi
9:00 PM41 °FLight rain. Mostly cloudy.7 mph93%30.02 "Hg8 mi
8:00 PM41 °FLight rain. Overcast.6 mph93%30.03 "Hg8 mi
7:00 PM41 °FLight rain. Overcast.2 mph93%30.03 "Hg10 mi
6:00 PM43 °FLight rain. Partly sunny.8 mph76%30.04 "Hg15 mi
5:00 PM45 °FPartly sunny.9 mph71%30.06 "Hg15 mi
4:00 PM46 °FMore clouds than sun.9 mph62%30.07 "Hg15 mi
3:00 PM46 °FPartly sunny.10 mph62%30.09 "Hg15 mi
2:00 PM45 °FPartly sunny.10 mph66%30.12 "Hg15 mi
1:00 PM43 °FPassing clouds.10 mph71%30.15 "Hg15 mi
12:00 PM43 °FPartly sunny.10 mph66%30.16 "Hg15 mi
11:00 AM41 °FOvercast.9 mph70%30.19 "Hg15 mi
10:00 AM37 °FOvercast.12 mph87%30.22 "Hg15 mi
9:00 AM36 °FOvercast.5 mph87%30.22 "Hg15 mi
8:00 AM32 °FOvercast.3 mph93%30.22 "Hg15 mi
7:00 AM32 °FPassing clouds.3 mph93%30.23 "Hg15 mi
6:00 AM30 °FPassing clouds.No wind93%30.22 "Hg15 mi
5:00 AM28 °FPassing clouds.2 mph100%30.22 "Hg15 mi
4:00 AM28 °FPassing clouds.2 mph93%30.23 "Hg15 mi
3:00 AM27 °FPassing clouds.No wind93%30.24 "Hg15 mi
2:00 AM27 °FPassing clouds.No wind100%30.24 "Hg15 mi
1:00 AM28 °FPassing clouds.No wind93%30.24 "Hg15 mi
12:00 AM27 °FPassing clouds.No wind93%30.23 "Hg15 mi
Weather by CustomWeather, © 2015

See weather overviewHow to use our weather pages